Weather History for KFSM - March, 2013

Change the Weather History Date:

Saturday, March 9, 2013

  Actual Average Record
Temperature  
Mean Temperature 59 °F 51 °F  
Max Temperature 69 °F 63 °F 91 °F (1911)
Min Temperature 49 °F 39 °F 10 °F (1996)
Degree Days  
Heating Degree Days 6 14  
Month to date heating degree days 149 139  
Since 1 July heating degree days 2472 2812  
Cooling Degree Days 0 0  
Month to date cooling degree days 0 0  
Year to date cooling degree days 1 1  
Growing Degree Days 8 (Base 50)    
Moisture  
Dew Point 50 °F    
Average Humidity 56    
Maximum Humidity 68    
Minimum Humidity 43    
Precipitation  
Precipitation 0.52 in 0.11 in 1.76 in (1964)
Month to date precipitation 0.53 1.04  
Year to date precipitation 8.96 6.61  
Sea Level Pressure  
Sea Level Pressure 29.85 in    
Wind  
Wind Speed 9 mph (SSE)    
Max Wind Speed 23 mph    
Max Gust Speed 29 mph    
Visibility 9 miles    
Events Rain , Thunderstorm    
T = Trace of Precipitation, MM = Missing Value Source: NWS Daily Summary

Daily Weather History Graph

Daily Weather History Graph

Search for Another Location

Airport or City:

Trip Planner

Search our weather history database for the weather conditions in past years. The results will help you decide how hot, cold, wet, or windy it might be!

Date:

Astronomy

Mar. 09, 2013 Rise Set
Actual Time 6:36 AM CST 6:20 PM CST
Civil Twilight 6:10 AM CST 6:45 PM CST
Nautical Twilight 5:41 AM CST 7:15 PM CST
Astronomical Twilight 5:11 AM CST 7:44 PM CST
Moon 4:56 AM CST (3/9) 4:25 PM CST (3/9)
Length of Visible Light 12h 34m
Length of Day
11h 44m
Waning Crescent, 5% of the Moon is Illuminated
Mar 9
Waning Crescent
Mar 11
New
Mar 19
First Quarter
Mar 27
Full
Apr 2
Last Quarter

Hourly Weather History & Observations

Time (CST) Temp. Dew Point Humidity Pressure Visibility Wind Dir Wind Speed Gust Speed Precip Events Conditions
12:53 AM 54.0 °F 37.9 °F 55% 30.07 in 10.0 mi East 12.7 mph - N/A   Smoke
1:53 AM 54.0 °F 37.9 °F 55% 30.05 in 10.0 mi ENE 9.2 mph - N/A   Smoke
2:53 AM 53.1 °F 39.0 °F 59% 30.01 in 10.0 mi East 6.9 mph - N/A   Smoke
3:53 AM 52.0 °F 39.0 °F 61% 30.00 in 10.0 mi East 10.4 mph - N/A   Smoke
4:53 AM 52.0 °F 39.0 °F 61% 29.99 in 10.0 mi East 8.1 mph - N/A   Smoke
5:53 AM 51.1 °F 39.0 °F 63% 29.98 in 10.0 mi ENE 6.9 mph - N/A   Smoke
6:53 AM 50.0 °F 39.0 °F 66% 29.98 in 10.0 mi ENE 6.9 mph - N/A   Smoke
7:53 AM 54.0 °F 37.9 °F 55% 29.95 in 10.0 mi East 9.2 mph - N/A   Smoke
8:53 AM 59.0 °F 39.0 °F 48% 29.97 in 10.0 mi East 9.2 mph - N/A   Smoke
9:53 AM 64.0 °F 41.0 °F 43% 29.94 in 10.0 mi East 9.2 mph - N/A   Smoke
10:53 AM 66.0 °F 45.0 °F 47% 29.93 in 10.0 mi ESE 6.9 mph - N/A   Smoke
11:53 AM 68.0 °F 48.9 °F 50% 29.89 in 10.0 mi SSE 4.6 mph - N/A   Smoke
12:53 PM 66.9 °F 52.0 °F 59% 29.86 in 10.0 mi SSE 8.1 mph - N/A   Smoke
1:53 PM 68.0 °F 53.1 °F 59% 29.83 in 10.0 mi South 12.7 mph - N/A   Smoke
2:53 PM 66.0 °F 54.0 °F 65% 29.80 in 10.0 mi SSE 6.9 mph 20.7 mph N/A   Smoke
3:53 PM 66.0 °F 55.0 °F 68% 29.78 in 10.0 mi Calm Calm - N/A   Smoke
4:53 PM 68.0 °F 55.0 °F 63% 29.75 in 10.0 mi South 11.5 mph 17.3 mph N/A   Smoke
5:53 PM 68.0 °F 55.0 °F 63% 29.73 in 10.0 mi SE 10.4 mph 19.6 mph 0.00 in   Smoke
6:53 PM 68.0 °F 55.0 °F 63% 29.73 in 10.0 mi SE 9.2 mph 20.7 mph N/A   Overcast
7:53 PM 66.9 °F 55.9 °F 68% 29.72 in 10.0 mi SSE 12.7 mph - 0.00 in   Mostly Cloudy
8:53 PM 66.0 °F 55.0 °F 68% 29.71 in 10.0 mi SSE 13.8 mph 20.7 mph N/A   Mostly Cloudy
9:38 PM 66.2 °F 55.4 °F 68% 29.74 in 10.0 mi South 13.8 mph 28.8 mph 0.00 in Rain , Thunderstorm Light Thunderstorms and Rain
9:53 PM 66.0 °F 55.9 °F 70% 29.73 in 10.0 mi South 11.5 mph 21.9 mph 0.01 in Rain , Thunderstorm Light Thunderstorms and Rain
10:08 PM 64.4 °F 57.2 °F 77% 29.79 in 3.0 mi WSW 18.4 mph 28.8 mph 0.01 in Rain Heavy Rain
10:10 PM 62.6 °F 59.0 °F 88% 29.79 in 2.5 mi SSW 15.0 mph 28.8 mph 0.09 in Rain Heavy Rain
10:15 PM 60.8 °F 57.2 °F 88% 29.77 in 1.8 mi SSW 11.5 mph - 0.21 in Rain Heavy Rain
10:19 PM 60.8 °F 57.2 °F 88% 29.77 in 3.0 mi South 10.4 mph - 0.24 in Rain Rain
10:26 PM 60.8 °F 57.2 °F 88% 29.79 in 7.0 mi SSW 15.0 mph 20.7 mph 0.25 in Rain , Thunderstorm Light Thunderstorms and Rain
10:53 PM 59.0 °F 57.0 °F 93% 29.77 in 7.0 mi WSW 11.5 mph - 0.32 in Rain , Thunderstorm Rain
11:02 PM 59.0 °F 57.2 °F 94% 29.77 in 7.0 mi WSW 10.4 mph - 0.02 in Rain , Thunderstorm Rain
11:53 PM 57.9 °F 55.0 °F 90% 29.75 in 5.0 mi SW 4.6 mph - 0.17 in Rain , Thunderstorm Thunderstorms and Rain
11:59 PM 57.2 °F 55.4 °F 94% 29.76 in 5.0 mi SSW 4.6 mph - 0.02 in Rain , Thunderstorm Rain